OPS 4682 DEB, 38396

Orbit data source: Space-Track

OPS 4682 DEB, 38396 is space debris in LEO originally from a launch on Sat, 03 Apr 1965 UTC launched from the Air Force Western Test Range (AFWTR). Debris objects in space refer to the collection of defunct objects orbiting the Earth. Examples of debris include non-operational satellites, rocket bodies, and fragments generated from explosions, collisions, or faulty payload assembly.

Loading next visibility...
Identifier
38396, 1965-027CZ
Orbit
LEO
Country
Flag of USUS
Related business
Manufacturer
Unknown
Mission
Spacecraft
Bus & Motor
Unknown
Mass
Unknown
Launch date (UTC)
1965-04-03 (61 years ago)
Launch vehicle
Unknown
Launch site
Air Force Western Test Range (AFWTR)
Object type
Payload
Rocket body
Debris
Shape & HBR
Unknown shape, 0.1 m
Radar Cross Section
Small (<0.1 m²)

Expand to show TLE details & history
Last TLE update: 12 hours ago

TLE from 12 hours ago
0 OPS 4682 DEB
1 38396U 65027CZ  26131.89944058  .00000205  00000-0  67399-3 0  9993
2 38396  90.2565  10.5053 0036402 185.7214 174.3496 12.97899818658493
Epoch: 2026-05-11T21:35Z
TLE epoch observation values (Epoch: 2026-05-11T21:35:11.666Z)
Latitude
-0.00001°
Longitude
177.02514°
Altitude
1,300.92 km
Speed
7.193 km/s
True Right ascension
00h 42m 01s
True Declination
0° 00' 00"
Sunlit
Object was in daylight at epoch
Visualization orbit readout
Latitude
Unknown
Longitude
Unknown
Altitude
Unknown
Speed
Unknown
Apparent Right ascension
Unknown
Apparent Declination
Unknown
Sunlit
N/A
Visualization observer readout
Local Sidereal Time
18:17:17
Azimuth
Unknown
Elevation
Unknown
Doppler factor
Unknown
Orbital elements
Apogee altitude
1,295.288 km
Perigee altitude
1,239.625 km
Semi-major axis
7,645.593 km
Eccentricity
0.00364
Inclination
90.2565°
RAAN
10.5053°
Arg. of periapsis
185.7214°
True anomaly
174.39049°
Mean anomaly
174.3496°
Eccentric anomaly
174.37006°
Mean motion
3.24658 °/min
Orbital period
110.89 mins
BSTAR
0.00067399
Loading maneuver chart data...
Computing Atmospheric mass density...
Loading historical data...
Loading historical data...
Loading historical data...
Loading historical data...
Loading historical data...
Loading historical data...
Loading historical data...

Documentation

Showing up to 5 results
|